Regional Weather Roundup
Issued by NWS Newport/Morehead, NC

Current Version | Previous Version | Graphics & Text | Print | Product List | Glossary Off
Versions: 1 2 3 4 5 6 7 8 9 10 11 12 13 14 15 16 17 18 19 20 21 22 23 24 25 26 27 28 29 30 31 32 33 34 35 36 37 38 39 40 41 42 43 44 45 46 47 48 49 50

000
ASUS42 KMHX 240513
RWRMHX
WEATHER ROUNDUP FOR EASTERN NORTH CAROLINA
NATIONAL WEATHER SERVICE NEWPORT/MOREHEAD CITY NC
100 AM EDT SUN SEP 24 2017

NOTE: "FAIR" INDICATES FEW OR NO CLOUDS BELOW 12,000 FEET
WITH NO SIGNIFICANT WEATHER AND/OR OBSTRUCTIONS TO VISIBILITY

NCZ015>017-031-032-045>047-102-103-240600-
NORTH COAST

CITY           SKY/WX    TMP DP  RH WIND       PRES   REMARKS
EDENTON        CLEAR     70  68  93 CALM      30.06S
ELIZABETH CITY CLEAR     71  70  96 N7        30.05S
KITTY HAWK     NOT AVBL
MANTEO         CLEAR     70  66  87 NE8       30.05S

$$

NCZ045>047-081-094-103-104-240600-
CENTRAL COAST

CITY           SKY/WX    TMP DP  RH WIND       PRES   REMARKS
FRISCO         MOCLDY    72  69  90 VRB7      30.03F

$$

NCZ095-097-098-100-101-240600-
SOUTHERN COAST

CITY           SKY/WX    TMP DP  RH WIND       PRES   REMARKS
BEAUFORT       MOCLDY    73  71  93 NE7       30.01F
CEDAR ISLAND   NOT AVBL
JACKSONVILLE   PTCLDY    72  70  93 N5        30.02F
PINEY ISLAND     N/A    N/A N/A N/A NE16      30.02F
WILMINGTON     CLEAR     71  69  93 NE6       30.02S


$$

NCZ011>013-027>030-043-044-078>080-089-090>093-098-240600-
COASTAL PLAIN

CITY           SKY/WX    TMP DP  RH WIND       PRES   REMARKS
AHOSKIE        CLEAR     66  66  99 CALM      30.06F
CLINTON        CLEAR     72  67  85 CALM      30.05S
ELIZABETHTOWN  NOT AVBL
GOLDSBORO      CLEAR     69  69 100 CALM      30.03F
GREENVILLE     CLEAR     68  68 100 CALM      30.07S
HAVELOCK       PTCLDY    74  70  87 NE10      30.03F
KENANSVILLE    PTCLDY    68  66  94 CALM      30.05S
KINSTON        PTCLDY    68  67  94 CALM      30.06S
NEW BERN       PTCLDY    71  69  93 NE6       30.05S
RICHLANDS      PTCLDY    67  66  97 CALM      30.04S
ROCKY MOUNT    CLEAR     66  66 100 CALM      30.07R
WASHINGTON     PTCLDY    68  67  96 CALM      30.06S
WHITEVILLE     PTCLDY    67  66  96 CALM      30.02F

$$

AMZ130-135-150-152-154-156-158-170-250-252-270-ANZ085-086-088-633-658-670-240600-
MARINE OBSERVATIONS

STATION/POSITION TIME  TEMP    WIND        PRES    WAVE   SWELL
                       AIR SEA DIR/SP/G            HT/PER HT/PER
                 (UTC) (F)     (DEG/KT/KT) (MB)    (FT/S) (FT/S)
CHESAPEAKE LIGHT NOT AVBL
64 E VA BEACH    0450   69 69   10/  6/  8 1017.6    9/13   8/13
DUCK             0442   72 76   50/ 11/ 12 1017.0
2 E DUCK         0430      76                N/A     5/15   3/15
OREGON INLET     0442   72 78   30/  6/ 11 1017.2
13E OREGON INLT  0448      74                N/A     7/12   7/12
HATTERAS CG      0442   72 79   60/  9/ 12 1016.7
DIAMOND BUOY     0450   72 75   30/ 16/ 17 1016.0    8/15   8/15
CAPE LOOKOUT     0500   75      40/ 21/ 22 1016.0
BEAUFORT LAB     0442   74 77   40/  6/ 10 1016.0
30 SE NEW RVR IN 0408   77      60/ 16/ 21 1015.8
30 SE NEW RVR IN NOT AVBL
27 SE WRIGHTSVLE 0408   78 80   70/ 16/ 21 1015.8
5 SE WRIGHTSVLE  NOT AVBL
225 S CAPE HAT   0450   79 80   50/ 19/ 23 1012.0   15/14  13/14
41 SE CHARLESTON 0450   80 82   50/ 14/ 17 1014.1    9/14   8/14

$$




USA.gov is the U.S. government's official web portal to all federal, state and local government web resources and services.